C/2022 E3 ( ZTF )

Japanese version
Home page
Updated on September 11, 2022

---------------------------------------------------------------------

* Profile

Discovery Date March 2, 2022
Magnitude 17.2 mag
Discoverer Zwicky Transient Facility (ZTF)

* Pictures

* Orbital Elements

Epoch 2022 Aug. 9.0 TT = JDT 2459800.5
T 2023 Jan. 12.78685 TT                                 Rudenko
q   1.1122493            (2000.0)            P               Q
z  -0.0002455      Peri.  145.81494     -0.60062723     -0.07339300
 +/-0.0000017      Node   302.55387     +0.33753501     +0.87941449
e   1.0002731      Incl.  109.16857     +0.72478759     -0.47036541
From 3301 observations 2021 Oct. 25-2022 Sept. 8, mean residual 0".4.

* Finding Charts

* Magnitudes Graph

        m1 = -2.0 + 5 log d + 25   log r  [    ,-288]  (             - 2022 Mar. 30)
        m1 =  7.0 + 5 log d + 10.0 log r  [-288,    ]  (2022 Mar. 30 -             )

---------------------------------------------------------------------

The orbital elements are published on M.P.E.C. 2022-R139.
The charts are made with StellaNavigator Ver.10 (AstroArts).
The magnitudes graphs are made with Comet for Windows.

---------------------------------------------------------------------

Copyright(C) Seiichi Yoshida (comet@aerith.net). All rights reserved.